NORTHERN NASSAU  -  Flash Flood Watch Flash Flood Watch     Rip Current Statement Rip Current Statement        NORTHERN QUEENS  -  Flash Flood Watch Flash Flood Watch     Rip Current Statement Rip Current Statement        SOUTHERN NASSAU  -  Flash Flood Watch Flash Flood Watch     Rip Current Statement Rip Current Statement        SOUTHERN QUEENS  -  Flash Flood Watch Flash Flood Watch     Rip Current Statement Rip Current Statement        NORTHEAST SUFFOLK  -  Rip Current Statement Rip Current Statement        NORTHWEST SUFFOLK  -  Rip Current Statement Rip Current Statement        SOUTHEAST SUFFOLK  -  Rip Current Statement Rip Current Statement        SOUTHWEST SUFFOLK  -  Rip Current Statement Rip Current Statement      

Active alerts

Northern Queens
  Details for Northern Queens Flash Flood Watch  +1 additional alert
Southern Queens
  Details for Southern Queens Flash Flood Watch  +1 additional alert
Northern Nassau
  Details for Northern Nassau Flash Flood Watch  +1 additional alert
Southern Nassau
  Details for Southern Nassau Flash Flood Watch  +1 additional alert
Northwest Suffolk
  Details for Northwest Suffolk Rip Current Statement
Southwest Suffolk
  Details for Southwest Suffolk Rip Current Statement
Northeast Suffolk
  Details for Northeast Suffolk Rip Current Statement
Southeast Suffolk
  Details for Southeast Suffolk Rip Current Statement


WXM80 ListenWXM80 Stop

You find our weather info also at:

UK Metoffice

WeatherCloud

Weather Underground

Northeastern Weather Network

AWEKAS

Citizen Weather Observer Program (CWOP)

HAMweather, WeatherForYou, PWS Weather


Weather Underground History page Text

Daily Summary for October 5, 2017 Units:  Metric    English   Both
« Previous Day
Next Day »
Daily Weekly Monthly Yearly Custom
  High: Low: Average:
Temperature: 29.2 °C 17.6 °C 22.5 °C
Dew Point: 20.6 °C 14.9 °C 17.4 °C
Humidity: 87 % 54 % 74 %
Wind Speed: 9.3 km/h 0 km/h 2.9 km/h
Wind Gust: 18.5 km/h - -
Wind:- - SW
Pressure: 1020.9 hPa 1012.4 hPa -
Precipitation: 0 mm    
Historical Graphs
 
 
Tabular Data for October 5, 2017
Time Temperature Dew Point Pressure Wind Wind Speed Wind Gust Humidity Rainfall Rate (Hourly)
00:02 18.1 °C 15.7 °C 1020.9 hPa SW 6 km/h 18.5 km/h 86 % 0 mm
00:07 18.1 °C 15.6 °C 1020.9 hPa SW 1.9 km/h 4.8 km/h 85 % 0 mm
00:12 18.1 °C 15.6 °C 1020.9 hPa WSW 4.8 km/h 6.4 km/h 85 % 0 mm
00:17 18.1 °C 15.6 °C 1020.9 hPa South 0.5 km/h 5.6 km/h 85 % 0 mm
00:22 18.1 °C 15.4 °C 1020.9 hPa SW 3.2 km/h 11.3 km/h 84 % 0 mm
00:27 18.1 °C 15.4 °C 1020.9 hPa West 2.9 km/h 12.9 km/h 84 % 0 mm
00:32 18.1 °C 15.4 °C 1020.9 hPa SSW 4.5 km/h 13 km/h 84 % 0 mm
00:37 18.1 °C 15.4 °C 1020.5 hPa SW 6.8 km/h 7.4 km/h 84 % 0 mm
00:43 18.1 °C 15.4 °C 1020.5 hPa SSW 3.2 km/h 7.4 km/h 84 % 0 mm
00:48 18.1 °C 15.4 °C 1020.5 hPa SSW 4.5 km/h 6.4 km/h 84 % 0 mm
00:53 18.1 °C 15.3 °C 1020.5 hPa SSW 7.4 km/h 11.1 km/h 84 % 0 mm
00:58 18.1 °C 15.1 °C 1020.5 hPa SSW 3.5 km/h 11.1 km/h 83 % 0 mm
01:03 18.1 °C 15.1 °C 1020.5 hPa SSW 3.4 km/h 11.1 km/h 83 % 0 mm
01:08 18.1 °C 15.1 °C 1020.5 hPa SW 5.3 km/h 13 km/h 83 % 0 mm
01:13 18.1 °C 15.1 °C 1020.5 hPa SW 6 km/h 14.8 km/h 83 % 0 mm
01:18 18.1 °C 15.1 °C 1020.5 hPa SSW 1.6 km/h 7.4 km/h 83 % 0 mm
01:23 18.1 °C 15.1 °C 1020.5 hPa SW 0.5 km/h 3.7 km/h 83 % 0 mm
01:28 18.1 °C 15.1 °C 1020.2 hPa SW 2.6 km/h 5.6 km/h 83 % 0 mm
01:33 18.1 °C 15.1 °C 1020.2 hPa SSW 2.1 km/h 7.4 km/h 83 % 0 mm
01:35 18.1 °C 15.1 °C 1020.2 hPa West 1.4 km/h 11.1 km/h 83 % 0 mm
01:40 18 °C 15.1 °C 1020.2 hPa WSW 0.8 km/h 3.7 km/h 83 % 0 mm
01:45 18 °C 15.1 °C 1020.2 hPa SW 2.6 km/h 5.6 km/h 83 % 0 mm
01:50 18 °C 15.1 °C 1020.2 hPa SW 1.4 km/h 3.7 km/h 83 % 0 mm
01:55 17.9 °C 15.2 °C 1020.2 hPa SW 2.1 km/h 6.4 km/h 84 % 0 mm
02:01 17.9 °C 15.2 °C 1020.2 hPa SSE 0.2 km/h 3.7 km/h 84 % 0 mm
02:06 17.9 °C 15 °C 1020.2 hPa SW 0.6 km/h 5.6 km/h 83 % 0 mm
02:11 17.9 °C 15.2 °C 1020.2 hPa WSW 3.7 km/h 14.8 km/h 84 % 0 mm
02:16 17.9 °C 15.2 °C 1019.9 hPa SW 3.2 km/h 5.6 km/h 84 % 0 mm
02:21 17.9 °C 14.9 °C 1020.2 hPa SW 6.8 km/h 13 km/h 83 % 0 mm
02:26 17.9 °C 15 °C 1020.2 hPa WSW 0.8 km/h 9.7 km/h 83 % 0 mm
02:31 18 °C 15.1 °C 1020.2 hPa SW 0.5 km/h 3.7 km/h 83 % 0 mm
02:36 18.1 °C 15.1 °C 1020.2 hPa SW 3.1 km/h 8 km/h 83 % 0 mm
02:41 18.1 °C 15.2 °C 1019.9 hPa WSW 4.3 km/h 11.1 km/h 83 % 0 mm
02:46 18.2 °C 15.1 °C 1019.9 hPa SSW 3.7 km/h 13 km/h 82 % 0 mm
02:51 18.2 °C 15.1 °C 1019.9 hPa SW 2.4 km/h 6.4 km/h 82 % 0 mm
02:56 18.3 °C 15.2 °C 1019.9 hPa South 2.7 km/h 7.4 km/h 82 % 0 mm
03:01 18.4 °C 15.3 °C 1019.5 hPa SSW 4 km/h 11.1 km/h 82 % 0 mm
03:06 18.4 °C 15.1 °C 1019.5 hPa SSW 9.3 km/h 13 km/h 81 % 0 mm
03:11 18.4 °C 15.1 °C 1019.5 hPa WSW 3.4 km/h 18.5 km/h 81 % 0 mm
03:16 18.5 °C 15.2 °C 1019.5 hPa SSW 8.2 km/h 9.3 km/h 81 % 0 mm
03:21 18.5 °C 15.2 °C 1019.2 hPa SSW 7.2 km/h 11.1 km/h 81 % 0 mm
03:26 18.6 °C 15.2 °C 1019.2 hPa WSW 5.1 km/h 9.3 km/h 81 % 0 mm
03:31 18.6 °C 15.2 °C 1019.2 hPa SSW 7.2 km/h 14.8 km/h 81 % 0 mm
03:37 18.6 °C 15.1 °C 1019.2 hPa SW 6 km/h 18.5 km/h 80 % 0 mm
03:47 18.7 °C 15.2 °C 1019.2 hPa SSW 4.3 km/h 6.4 km/h 80 % 0 mm
03:52 18.7 °C 15.3 °C 1019.2 hPa SW 4.7 km/h 9.3 km/h 81 % 0 mm
04:02 18.7 °C 15.2 °C 1019.2 hPa WSW 4.3 km/h 14.8 km/h 80 % 0 mm
04:07 18.7 °C 15.2 °C 1019.2 hPa Calm   1.9 km/h 80 % 0 mm
04:12 18.7 °C 15.4 °C 1019.2 hPa SSW 0.5 km/h 11.1 km/h 81 % 0 mm
04:17 18.7 °C 15.2 °C 1018.8 hPa WSW 3.2 km/h 11.3 km/h 80 % 0 mm
04:22 18.7 °C 15.4 °C 1018.8 hPa Calm     81 % 0 mm
04:27 18.7 °C 15.2 °C 1018.8 hPa SW 4.2 km/h 7.4 km/h 80 % 0 mm
04:32 18.7 °C 15.3 °C 1018.8 hPa SW 4.3 km/h 9.3 km/h 81 % 0 mm
04:37 18.7 °C 15.3 °C 1019.2 hPa WSW 0.2 km/h 3.2 km/h 81 % 0 mm
04:42 18.7 °C 15.3 °C 1018.8 hPa SSW 4.7 km/h 7.4 km/h 81 % 0 mm
04:47 18.6 °C 15.3 °C 1018.8 hPa WSW 0.3 km/h 1.9 km/h 81 % 0 mm
04:52 18.6 °C 15.2 °C 1018.8 hPa SW 6.3 km/h 9.3 km/h 81 % 0 mm
04:57 18.6 °C 15.2 °C 1018.8 hPa SW 1.3 km/h 5.6 km/h 81 % 0 mm
05:02 18.5 °C 15.2 °C 1018.8 hPa Calm   1.9 km/h 81 % 0 mm
05:07 18.4 °C 15.1 °C 1018.8 hPa SW 0.6 km/h 3.2 km/h 81 % 0 mm
05:12 18.4 °C 15.1 °C 1018.8 hPa Calm   3.7 km/h 81 % 0 mm
05:17 18.4 °C 15.3 °C 1019.2 hPa Calm     82 % 0 mm
05:22 18.3 °C 15.2 °C 1019.2 hPa Calm     82 % 0 mm
05:32 18.2 °C 15.1 °C 1019.2 hPa Calm     82 % 0 mm
05:37 18.2 °C 15.1 °C 1019.2 hPa Calm   1.9 km/h 82 % 0 mm
05:43 18.1 °C 14.9 °C 1019.2 hPa South 0.2 km/h   82 % 0 mm
05:48 18.1 °C 15.1 °C 1019.2 hPa Calm   1.9 km/h 83 % 0 mm
05:53 18 °C 15.1 °C 1019.2 hPa SSW 0.2 km/h 1.9 km/h 83 % 0 mm
05:58 17.9 °C 14.9 °C 1019.2 hPa Calm     83 % 0 mm
06:03 17.8 °C 14.9 °C 1019.2 hPa SSW 0.2 km/h 1.9 km/h 83 % 0 mm
06:08 17.8 °C 15.1 °C 1019.2 hPa SW 1.8 km/h 3.7 km/h 84 % 0 mm
06:13 17.7 °C 15 °C 1019.2 hPa WSW 1.6 km/h 11.1 km/h 84 % 0 mm
06:23 17.7 °C 15.1 °C 1019.2 hPa SW 4 km/h 5.6 km/h 85 % 0 mm
06:28 17.6 °C 15.1 °C 1019.2 hPa SW 1.3 km/h 3.7 km/h 85 % 0 mm
06:33 17.6 °C 15.1 °C 1019.5 hPa SSW 4.7 km/h 7.4 km/h 85 % 0 mm
06:38 17.6 °C 15.1 °C 1019.5 hPa WSW 3.9 km/h 5.6 km/h 85 % 0 mm
06:43 17.6 °C 15.2 °C 1019.5 hPa WSW 4.2 km/h 9.3 km/h 86 % 0 mm
06:48 17.6 °C 15.2 °C 1019.5 hPa WSW 3.7 km/h 9.3 km/h 86 % 0 mm
06:53 17.6 °C 15.2 °C 1019.2 hPa SW 5.6 km/h 13 km/h 86 % 0 mm
06:58 17.6 °C 15.2 °C 1019.5 hPa WSW 4.8 km/h 7.4 km/h 86 % 0 mm
07:03 17.6 °C 15.2 °C 1019.5 hPa WSW 5.1 km/h 9.3 km/h 86 % 0 mm
07:08 17.7 °C 15.3 °C 1019.9 hPa SW 5.6 km/h 9.3 km/h 86 % 0 mm
07:13 17.7 °C 15.3 °C 1019.5 hPa SW 3.4 km/h 5.6 km/h 86 % 0 mm
07:18 17.7 °C 15.3 °C 1019.5 hPa SSW 3.7 km/h 9.3 km/h 86 % 0 mm
07:28 17.7 °C 15.3 °C 1019.5 hPa WSW 2.3 km/h 5.6 km/h 86 % 0 mm
07:33 17.7 °C 15.3 °C 1019.5 hPa WSW 3.5 km/h 5.6 km/h 86 % 0 mm
07:34 17.7 °C 15.3 °C 1019.5 hPa WSW 2.7 km/h 5.6 km/h 86 % 0 mm
07:39 17.7 °C 15.3 °C 1019.5 hPa SW 2.3 km/h 5.6 km/h 86 % 0 mm
07:44 17.7 °C 15.6 °C 1019.5 hPa WSW 7.1 km/h 11.1 km/h 87 % 0 mm
07:51 17.8 °C 15.6 °C 1019.5 hPa SW 4.5 km/h 14.8 km/h 87 % 0 mm
07:56 17.8 °C 15.6 °C 1019.5 hPa SSW 6.1 km/h 7.4 km/h 87 % 0 mm
08:00 17.9 °C 15.7 °C 1019.5 hPa SW 5.6 km/h 7.4 km/h 87 % 0 mm
08:05 18 °C 15.8 °C 1019.9 hPa WSW 4.8 km/h 9.3 km/h 87 % 0 mm
08:11 18.1 °C 15.7 °C 1019.9 hPa SW 3.2 km/h 9.7 km/h 86 % 0 mm
08:16 18.2 °C 15.8 °C 1019.9 hPa SW 3.2 km/h 11.3 km/h 86 % 0 mm
08:21 18.3 °C 15.9 °C 1019.9 hPa SW 4.8 km/h 11.3 km/h 86 % 0 mm
08:26 18.3 °C 15.8 °C 1019.5 hPa SSW 1.8 km/h 3.7 km/h 85 % 0 mm
08:31 18.4 °C 15.9 °C 1019.5 hPa SW 1.6 km/h 8 km/h 85 % 0 mm
08:36 18.5 °C 15.9 °C 1019.5 hPa SW 1.6 km/h 4.8 km/h 85 % 0 mm
08:41 18.6 °C 16 °C 1019.5 hPa Calm   3.2 km/h 85 % 0 mm
08:46 18.7 °C 16.1 °C 1019.5 hPa SW 4.8 km/h 11.3 km/h 85 % 0 mm
08:51 18.7 °C 15.9 °C 1019.5 hPa SW 2.7 km/h 5.6 km/h 84 % 0 mm
08:56 18.7 °C 15.9 °C 1019.9 hPa SW 3.2 km/h 12.9 km/h 84 % 0 mm
09:01 18.8 °C 16 °C 1019.5 hPa West 0.8 km/h 7.4 km/h 84 % 0 mm
09:06 18.8 °C 16.3 °C 1019.9 hPa SW 1.9 km/h 3.7 km/h 85 % 0 mm
09:11 18.9 °C 16.3 °C 1019.5 hPa SW 4.8 km/h 7.4 km/h 85 % 0 mm
09:16 18.9 °C 16.4 °C 1019.5 hPa SW 4.3 km/h 9.3 km/h 85 % 0 mm
09:26 19.2 °C 16.4 °C 1019.5 hPa WSW 3.5 km/h 11.3 km/h 84 % 0 mm
09:31 19.3 °C 16.3 °C 1019.5 hPa WSW 4.3 km/h 9.7 km/h 83 % 0 mm
09:36 19.4 °C 16.4 °C 1019.5 hPa SW 4 km/h 9.3 km/h 83 % 0 mm
09:41 19.6 °C 16.4 °C 1019.2 hPa WSW 5.3 km/h 7.4 km/h 82 % 0 mm
09:46 19.7 °C 16.5 °C 1019.2 hPa SSW 4.8 km/h 6.4 km/h 82 % 0 mm
09:51 19.8 °C 16.6 °C 1019.2 hPa WSW 6.1 km/h 11.1 km/h 82 % 0 mm
10:01 20.1 °C 16.7 °C 1019.5 hPa SSW 4.3 km/h 11.3 km/h 81 % 0 mm
10:06 20.2 °C 16.8 °C 1019.2 hPa SSW 8 km/h 9.3 km/h 81 % 0 mm
10:11 20.4 °C 16.9 °C 1019.2 hPa SW 6.1 km/h 8 km/h 80 % 0 mm
10:16 20.7 °C 17.2 °C 1019.5 hPa SSW 4.5 km/h 7.4 km/h 80 % 0 mm
10:21 21 °C 17.2 °C 1019.5 hPa West 2.4 km/h 5.6 km/h 79 % 0 mm
10:26 21.2 °C 17.2 °C 1019.5 hPa WNW 4.5 km/h 7.4 km/h 78 % 0 mm
10:31 21.4 °C 17.1 °C 1019.2 hPa WNW 2.4 km/h 5.6 km/h 76 % 0 mm
10:36 21.6 °C 17.2 °C 1019.2 hPa SW 5 km/h 11.1 km/h 76 % 0 mm
10:41 21.8 °C 17.3 °C 1018.8 hPa WSW 4.7 km/h 7.4 km/h 76 % 0 mm
10:46 21.9 °C 17.5 °C 1019.2 hPa West 1.8 km/h 5.6 km/h 76 % 0 mm
10:51 22.1 °C 17.4 °C 1018.8 hPa WNW 3.5 km/h 7.4 km/h 75 % 0 mm
10:57 22.3 °C 17.4 °C 1018.8 hPa WSW 0.6 km/h 7.4 km/h 74 % 0 mm
11:02 22.6 °C 18.2 °C 1018.8 hPa WSW 3.7 km/h 5.6 km/h 76 % 0 mm
11:07 22.9 °C 18.3 °C 1018.8 hPa WNW 1.8 km/h 5.6 km/h 75 % 0 mm
11:10 23.2 °C 18.9 °C 1018.8 hPa WNW 0.8 km/h 5.6 km/h 77 % 0 mm
11:13 23.5 °C 18.4 °C 1018.5 hPa SW 1 km/h 5.6 km/h 73 % 0 mm
11:18 24 °C 18.8 °C 1018.5 hPa West 1.3 km/h 4.8 km/h 73 % 0 mm
11:23 24.6 °C 19.2 °C 1018.5 hPa West 4.2 km/h 9.7 km/h 72 % 0 mm
11:28 25.1 °C 18.9 °C 1018.5 hPa NW 5 km/h 6.4 km/h 69 % 0 mm
11:33 25.6 °C 18.7 °C 1018.2 hPa West 1.8 km/h 5.6 km/h 66 % 0 mm
11:38 25.9 °C 18.6 °C 1018.2 hPa WNW 2.7 km/h 5.6 km/h 64 % 0 mm
11:44 26.2 °C 19.1 °C 1017.8 hPa WNW 1.1 km/h 5.6 km/h 65 % 0 mm
11:49 26.6 °C 18.9 °C 1017.8 hPa West 1.1 km/h 11.1 km/h 63 % 0 mm
11:54 26.9 °C 19 °C 1017.8 hPa SSE 2.1 km/h 5.6 km/h 62 % 0 mm
11:59 27.4 °C 19.4 °C 1017.8 hPa SE 0.3 km/h 5.6 km/h 62 % 0 mm
12:04 27.9 °C 19.7 °C 1017.8 hPa WSW 4.5 km/h 11.1 km/h 61 % 0 mm
12:09 28.2 °C 18.8 °C 1017.8 hPa SW 3.2 km/h 5.6 km/h 57 % 0 mm
12:14 28.4 °C 19.7 °C 1018.2 hPa WSW 1.4 km/h 5.6 km/h 59 % 0 mm
12:19 28.8 °C 20.2 °C 1018.2 hPa NW 1.6 km/h 7.4 km/h 60 % 0 mm
12:24 28.9 °C 20.6 °C 1017.8 hPa NNW 5.1 km/h 9.3 km/h 61 % 0 mm
12:29 28.8 °C 20.3 °C 1018.2 hPa NNW 1.3 km/h 5.6 km/h 60 % 0 mm
12:34 28.9 °C 19.8 °C 1017.8 hPa NNW 2.1 km/h 5.6 km/h 58 % 0 mm
12:39 28.9 °C 20.1 °C 1017.8 hPa West 1.3 km/h 3.7 km/h 59 % 0 mm
12:44 29 °C 19.6 °C 1017.5 hPa NW 1.4 km/h 4.8 km/h 57 % 0 mm
12:49 29.1 °C 19.1 °C 1017.5 hPa WNW 5.8 km/h 8 km/h 55 % 0 mm
12:59 29.1 °C 19.1 °C 1017.2 hPa West 5 km/h 7.4 km/h 55 % 0 mm
13:04 29.1 °C 20 °C 1017.2 hPa WSW 3.7 km/h 5.6 km/h 58 % 0 mm
13:14 29.2 °C 18.9 °C 1017.2 hPa West 4.2 km/h 6.4 km/h 54 % 0 mm
13:19 29.2 °C 19.2 °C 1017.2 hPa WNW 0.8 km/h 1.9 km/h 55 % 0 mm
13:24 29.1 °C 19.7 °C 1016.8 hPa WNW 1.6 km/h 3.7 km/h 57 % 0 mm
13:30 28.9 °C 19.3 °C 1016.8 hPa SW 4 km/h 11.1 km/h 56 % 0 mm
13:35 28.8 °C 19.9 °C 1016.8 hPa West 0.2 km/h 3.7 km/h 59 % 0 mm
13:40 28.7 °C 19.6 °C 1016.8 hPa WNW 2.6 km/h 5.6 km/h 58 % 0 mm
13:45 28.5 °C 19.7 °C 1016.8 hPa West 4.7 km/h 7.4 km/h 59 % 0 mm
13:50 28.3 °C 19.6 °C 1016.8 hPa West 4.5 km/h 5.6 km/h 59 % 0 mm
13:55 28.2 °C 19.4 °C 1016.5 hPa WNW 3.2 km/h 7.4 km/h 59 % 0 mm
14:00 28.1 °C 19.3 °C 1016.5 hPa Calm   1.9 km/h 59 % 0 mm
14:05 27.9 °C 19.2 °C 1016.5 hPa WNW 1.1 km/h 5.6 km/h 59 % 0 mm
14:10 27.9 °C 19.2 °C 1016.5 hPa SW 6.3 km/h 11.1 km/h 59 % 0 mm
14:15 28 °C 19.5 °C 1016.5 hPa WSW 8.9 km/h 14.8 km/h 60 % 0 mm
14:16 28 °C 19.5 °C 1016.5 hPa WNW 6 km/h 14.8 km/h 60 % 0 mm
14:21 28.1 °C 19.3 °C 1016.5 hPa WSW 8 km/h 11.1 km/h 59 % 0 mm
14:26 28.3 °C 19.2 °C 1016.5 hPa WSW 6.4 km/h 13 km/h 58 % 0 mm
14:31 28.4 °C 19.1 °C 1016.5 hPa SW 5.3 km/h 18.5 km/h 57 % 0 mm
14:36 28.5 °C 18.9 °C 1016.1 hPa SSW 6.4 km/h 9.3 km/h 56 % 0 mm
14:41 28.6 °C 19.2 °C 1016.1 hPa WSW 7.7 km/h 9.7 km/h 57 % 0 mm
14:46 28.6 °C 19.3 °C 1016.1 hPa West 5 km/h 9.3 km/h 57 % 0 mm
14:51 28.7 °C 19.6 °C 1016.1 hPa West 4.7 km/h 5.6 km/h 58 % 0 mm
14:56 28.7 °C 19.3 °C 1016.1 hPa WSW 5 km/h 11.3 km/h 57 % 0 mm
15:01 28.7 °C 19.3 °C 1016.1 hPa WSW 0.2 km/h 1.9 km/h 57 % 0 mm
15:06 28.7 °C 20.2 °C 1016.1 hPa SSW 3.1 km/h 5.6 km/h 60 % 0 mm
15:11 28.8 °C 19.4 °C 1015.8 hPa West 1.6 km/h 11.1 km/h 57 % 0 mm
15:16 28.8 °C 19.4 °C 1016.1 hPa SW 3.2 km/h 11.1 km/h 57 % 0 mm
15:21 28.8 °C 19.4 °C 1016.1 hPa SW 5 km/h 9.3 km/h 57 % 0 mm
15:26 28.7 °C 19.6 °C 1015.8 hPa SSW 0.2 km/h 3.7 km/h 58 % 0 mm
15:36 28.4 °C 19.4 °C 1015.8 hPa WSW 1.6 km/h 11.1 km/h 58 % 0 mm
15:41 28.3 °C 19.5 °C 1015.8 hPa SSW 3.1 km/h 5.6 km/h 59 % 0 mm
15:47 28.2 °C 19.4 °C 1015.8 hPa South 2.9 km/h 5.6 km/h 59 % 0 mm
15:52 28.1 °C 19.3 °C 1015.5 hPa SW 2.1 km/h 5.6 km/h 59 % 0 mm
15:57 27.9 °C 19.7 °C 1015.8 hPa South 4 km/h 5.6 km/h 61 % 0 mm
16:02 27.9 °C 19.4 °C 1015.5 hPa WSW 0.6 km/h 3.7 km/h 60 % 0 mm
16:07 27.8 °C 19.3 °C 1015.5 hPa SW 0.6 km/h 5.6 km/h 60 % 0 mm
16:12 27.7 °C 19.5 °C 1015.5 hPa SW 3.7 km/h 7.4 km/h 61 % 0 mm
16:17 27.7 °C 19.4 °C 1015.5 hPa WSW 1.8 km/h 5.6 km/h 61 % 0 mm
16:22 27.6 °C 19.6 °C 1015.5 hPa WSW 0.2 km/h 1.9 km/h 62 % 0 mm
16:27 27.4 °C 19.5 °C 1015.5 hPa WSW 1.8 km/h 5.6 km/h 62 % 0 mm
16:32 27.4 °C 19.4 °C 1015.5 hPa WSW 0.6 km/h 1.9 km/h 62 % 0 mm
16:37 27.3 °C 19.7 °C 1015.5 hPa Calm   1.9 km/h 63 % 0 mm
16:42 27.3 °C 19.6 °C 1015.5 hPa SW 3.1 km/h 7.4 km/h 63 % 0 mm
16:47 27.2 °C 19.6 °C 1015.5 hPa WSW 1 km/h 9.3 km/h 63 % 0 mm
16:52 27.2 °C 19.5 °C 1015.5 hPa Calm   1.9 km/h 63 % 0 mm
16:57 27.1 °C 19.7 °C 1015.5 hPa SW 0.3 km/h 1.9 km/h 64 % 0 mm
17:02 27.1 °C 19.4 °C 1015.5 hPa WSW 0.2 km/h 1.9 km/h 63 % 0 mm
17:07 26.9 °C 19.3 °C 1015.5 hPa Calm     63 % 0 mm
17:12 26.9 °C 19.5 °C 1015.5 hPa SW 0.6 km/h 5.6 km/h 64 % 0 mm
17:17 26.8 °C 19.4 °C 1015.5 hPa Calm     64 % 0 mm
17:27 26.6 °C 19.5 °C 1015.5 hPa Calm   1.9 km/h 65 % 0 mm
17:32 26.5 °C 19.4 °C 1015.1 hPa Calm   1.6 km/h 65 % 0 mm
17:37 26.4 °C 19.6 °C 1015.5 hPa SW 0.2 km/h 1.9 km/h 66 % 0 mm
17:42 26.3 °C 19.4 °C 1015.5 hPa SW 0.2 km/h 1.9 km/h 66 % 0 mm
17:47 26.2 °C 19.6 °C 1015.5 hPa Calm   1.9 km/h 67 % 0 mm
17:52 26.1 °C 19.7 °C 1015.5 hPa Calm     68 % 0 mm
17:57 25.9 °C 19.6 °C 1015.1 hPa SW 0.3 km/h 3.7 km/h 68 % 0 mm
18:02 25.8 °C 19.7 °C 1015.1 hPa SSW 0.6 km/h 6.4 km/h 69 % 0 mm
18:07 25.7 °C 19.6 °C 1015.1 hPa SSW 1 km/h 1.9 km/h 69 % 0 mm
18:12 25.5 °C 19.6 °C 1015.5 hPa SSW 2.7 km/h 6.4 km/h 70 % 0 mm
18:17 25.3 °C 19.4 °C 1015.1 hPa SSW 1.3 km/h 5.6 km/h 70 % 0 mm
18:22 25.2 °C 19.3 °C 1015.1 hPa SSW 0.6 km/h 5.6 km/h 70 % 0 mm
18:27 25.1 °C 19.2 °C 1015.1 hPa Calm   1.9 km/h 70 % 0 mm
18:32 25 °C 19.4 °C 1015.1 hPa SSW 0.6 km/h 3.2 km/h 71 % 0 mm
18:37 24.8 °C 19.2 °C 1015.1 hPa SW 0.6 km/h 5.6 km/h 71 % 0 mm
18:42 24.7 °C 19.1 °C 1015.1 hPa SSW 4.5 km/h 9.3 km/h 71 % 0 mm
18:47 24.6 °C 19.2 °C 1015.1 hPa SSW 1.9 km/h 4.8 km/h 72 % 0 mm
18:52 24.5 °C 19.1 °C 1015.1 hPa SSW 1 km/h 1.9 km/h 72 % 0 mm
18:57 24.4 °C 19.2 °C 1015.1 hPa SSW 4 km/h 5.6 km/h 73 % 0 mm
19:02 24.3 °C 19.2 °C 1015.1 hPa SSW 1.8 km/h 3.7 km/h 73 % 0 mm
19:07 24.2 °C 19.1 °C 1015.1 hPa SSW 2.6 km/h 4.8 km/h 73 % 0 mm
19:12 24.1 °C 19.1 °C 1015.5 hPa SSW 1.9 km/h 3.7 km/h 74 % 0 mm
19:18 24 °C 19.1 °C 1015.5 hPa West 0.6 km/h 5.6 km/h 74 % 0 mm
19:23 23.9 °C 19 °C 1015.5 hPa SW 2.6 km/h 9.3 km/h 74 % 0 mm
19:33 23.8 °C 18.9 °C 1015.5 hPa SSW 0.5 km/h 3.2 km/h 74 % 0 mm
19:38 23.8 °C 18.9 °C 1015.5 hPa SW 1.6 km/h 5.6 km/h 74 % 0 mm
19:43 23.7 °C 18.8 °C 1015.5 hPa WSW 2.7 km/h 5.6 km/h 74 % 0 mm
19:48 23.7 °C 18.9 °C 1015.5 hPa SW 0.5 km/h 3.2 km/h 75 % 0 mm
19:53 23.7 °C 18.9 °C 1015.5 hPa SW 0.8 km/h 3.7 km/h 75 % 0 mm
19:58 23.6 °C 18.9 °C 1015.5 hPa SW 0.3 km/h 3.7 km/h 75 % 0 mm
20:03 23.6 °C 18.9 °C 1015.8 hPa SW 1.1 km/h 3.7 km/h 75 % 0 mm
20:08 23.6 °C 18.9 °C 1015.5 hPa SW 0.5 km/h 5.6 km/h 75 % 0 mm
20:13 23.5 °C 18.6 °C 1015.8 hPa South 0.3 km/h 3.7 km/h 74 % 0 mm
20:18 23.5 °C 18.6 °C 1015.8 hPa Calm   1.9 km/h 74 % 0 mm
20:23 23.4 °C 18.6 °C 1015.5 hPa SSE 4.2 km/h 9.3 km/h 74 % 0 mm
20:28 23.4 °C 18.3 °C 1015.5 hPa SW 1.8 km/h 7.4 km/h 73 % 0 mm
20:39 23.4 °C 18.3 °C 1015.8 hPa SW 2.3 km/h 5.6 km/h 73 % 0 mm
20:44 23.4 °C 18.1 °C 1015.8 hPa WSW 2.7 km/h 7.4 km/h 72 % 0 mm
20:49 23.5 °C 18.2 °C 1015.8 hPa SW 6.6 km/h 13 km/h 72 % 0 mm
20:54 23.6 °C 18.2 °C 1015.8 hPa WSW 3.2 km/h 7.4 km/h 72 % 0 mm
20:59 23.6 °C 18.2 °C 1015.8 hPa SW 3.9 km/h 11.1 km/h 72 % 0 mm
21:04 23.6 °C 18.1 °C 1015.8 hPa SSW 1 km/h 5.6 km/h 71 % 0 mm
21:09 23.7 °C 18.3 °C 1016.1 hPa SW 0.3 km/h 3.7 km/h 72 % 0 mm
21:29 23.7 °C 18.1 °C 1016.1 hPa South 2.4 km/h 9.3 km/h 71 % 0 mm
21:34 23.7 °C 18.1 °C 1016.1 hPa WSW 2.9 km/h 11.1 km/h 71 % 0 mm
21:39 23.7 °C 18.1 °C 1016.1 hPa WSW 6.9 km/h 11.1 km/h 71 % 0 mm
21:44 23.7 °C 17.9 °C 1016.1 hPa SSW 6 km/h 11.1 km/h 70 % 0 mm
21:49 23.7 °C 18.1 °C 1016.1 hPa WSW 2.1 km/h 4.8 km/h 71 % 0 mm
22:04 23.7 °C 17.9 °C 1016.1 hPa WSW 5.1 km/h 9.7 km/h 70 % 0 mm
22:09 23.7 °C 18.1 °C 1016.1 hPa SW 2.7 km/h 5.6 km/h 71 % 0 mm
22:14 23.7 °C 18.1 °C 1016.1 hPa SSW 1.3 km/h 5.6 km/h 71 % 0 mm
22:19 23.7 °C 18.1 °C 1016.1 hPa SW 6.8 km/h 9.3 km/h 71 % 0 mm
22:24 23.7 °C 18.1 °C 1016.1 hPa SW 6.1 km/h 9.3 km/h 71 % 0 mm
22:29 23.6 °C 18.1 °C 1016.1 hPa WSW 6.1 km/h 14.8 km/h 71 % 0 mm
22:34 23.6 °C 18.1 °C 1016.1 hPa SW 2.7 km/h 5.6 km/h 71 % 0 mm
22:39 23.6 °C 18 °C 1016.1 hPa WSW 0.5 km/h 3.7 km/h 71 % 0 mm
22:44 23.6 °C 18 °C 1016.1 hPa SW 2.3 km/h 5.6 km/h 71 % 0 mm
22:49 23.5 °C 17.9 °C 1016.1 hPa SW 5 km/h 11.1 km/h 71 % 0 mm
22:59 23.4 °C 18.1 °C 1016.1 hPa WSW 4.8 km/h 6.4 km/h 72 % 0 mm
23:04 23.4 °C 18.1 °C 1016.1 hPa SSW 6 km/h 9.3 km/h 72 % 0 mm
23:09 23.4 °C 18.3 °C 1016.1 hPa SSW 2.3 km/h 7.4 km/h 73 % 0 mm
23:15 23.3 °C 18.4 °C 1016.5 hPa SW 3.9 km/h 9.3 km/h 74 % 0 mm
23:20 23.3 °C 18.9 °C 1016.5 hPa WSW 5.6 km/h 9.7 km/h 76 % 0 mm
23:23 23.3 °C 18.8 °C 1012.4 hPa WSW 1.1 km/h 11.1 km/h 76 % 0 mm
23:25 23.2 °C 18.8 °C 1016.5 hPa SW 3.1 km/h 6.4 km/h 76 % 0 mm
23:26 23.2 °C 18.8 °C 1016.5 hPa WSW 4.2 km/h 9.7 km/h 76 % 0 mm
23:31 23.2 °C 18.9 °C 1016.5 hPa WSW 3.2 km/h 8 km/h 77 % 0 mm
23:41 22.9 °C 18.9 °C 1016.5 hPa Calm   3.2 km/h 78 % 0 mm
23:46 22.8 °C 19 °C 1016.5 hPa SW 1.6 km/h 6.4 km/h 79 % 0 mm
23:51 22.7 °C 19.1 °C 1016.5 hPa Calm   6.4 km/h 80 % 0 mm
23:56 22.6 °C 18.9 °C 1016.5 hPa WSW 1.6 km/h 8 km/h 80 % 0 mm
Crab Meadow Weather
Compliments of Weather Underground - 3 mb

Script developed by  Jim McMurry - jmcmurry@mwt.net Adapted for the template by  Wim van der Kuil - Leuven-Template.eu

Extremes: In Wyndham, Australia, the temperature reached 90 degrees F for 333 days in 1946.